Location: Ch�teau-Arnoux
(44.0814°N, 6.0027°E)
Time: 05:28:52
(UTC+00:00)

Cosmos 1892 - Pass Details

Date: 15 November 2019
Orbit: 505 x 525 km, 82.5° (Epoch: 14 December)

Event Time Altitude Azimuth Distance (km) Brightness Sun altitude
Rises 04:25:32 0° 172° (S) 2,612 6.4 -22.4°
Reaches altitude 10° 04:27:43 10° 166° (SSE) 1,728 5.6 -22.0°
Maximum altitude 04:31:19 44° 94° (E) 716 3.8 -21.4°
Drops below altitude 10° 04:34:56 10° 21° (NNE) 1,733 5.5 -20.7°
Sets 04:37:08 0° 15° (NNE) 2,621 6.4 -20.4°
